星链-30334 (STARLINK-30334 )

导读

STARLINK-30334是美国SpaceX公司星链星座中的一颗量产型低轨通信卫星,于2023年8月27日发射升空。该卫星延续星链设计,采用平板构型搭载单太阳电池阵,配备以氪为工质的霍尔推进器,支持自主轨道调整与末端离轨。它工作于Ku/Ka波段,依托光学星间链路与相控阵技术,服务全球宽带互联网接入,设计寿命约5-7年,退役后将再入大气层焚毁。

基本信息
目录编号:
57719
目录名称:
STARLINK-30334
国际标识:
2023-129X
轨道中心:
EARTH
卫星名称:
星链-30334
卫星全名:
星链-30334 (STARLINK-30334 )
卫星状态:
在轨 (已飞行1104 天)
发射日期:
2023-08-27 UTC
国别 :
美国 (US)
星等 :
--
轨道信息
数据来源 国际轨道数据 AOE轨道数据
星历时间 2026-09-04T05:24:46+0800
11小时前
查看轨道信息
2026-09-04T00:00:00+0800
16小时前
查看轨道信息
半长轴 6861.203km 6861.193km
偏心率 0.0000907 0.000004
轨道倾角 43.004° 43.001°
近地点辐角 277.696° 175.596°
升交点赤经 191.741° 193.018°
平近点角 82.379° 22.772°
近地点 482.443km 483.028km
远地点 483.689km 483.084km
周期 94.267分钟 94.267分钟
每日圈数 15.275745 15.27578
详细信息
固有亮度:
5
最大亮度:
0.3
卫星平台:
Starlink v2.0 mini
覆盖范围:
全球
运营商:
太空探索技术公司
运营商所在国:
美国
制造商(研发单位):
太空探索技术公司
制造商所在国:
美国
使用方式:
暂无
卫星简介
星链(Starlink)计划是由太空探索技术公司(SpaceX)提出的一个巨型低轨卫星互联网星座项目,计划在2019年至2024年间在太空搭建由约1.2万颗卫星组成的“星链”网络,其中1584颗将部署在地球上空550千米处的近地轨道,并从2020年开始工作。该卫星仍在工作。
2D轨道图
3D轨道图
轨道高度分析图
轨道倾角分析图
轨道综合分析图
查看轨道综合分析图
交会数据列表
事件ID 空间交会对象 最接近时刻(TCA) 交会距离 交会风险概率(CRP) 交会风险指数(CRI) 操作
CDM_260904-164805-771906-321622
BOTSAT-1 (63216)
2026-09-04T
16:48:25+0000
1.706 km
极远距离
3.115811E-6 低风险 0.45
CDM_260904-104205-771906-453021
2026-09-04T
10:42:57+0000
2.195 km
极远距离
2.242847E-6 低风险 0.42
CDM_260904-131305-694405-771922
2026-09-04T
13:13:14+0000
2.305 km
极远距离
2.007412E-6 低风险 0.41
CDM_260904-172905-504705-771922
2026-09-04T
17:29:55+0000
2.488 km
极远距离
1.63179E-6 低风险 0.39